This is the latest recevied weather packets stored in our database for station/object KC5EZZ-2. If no packets are shown the sender has not sent any weather packets the latest 10 day(s).
| Time | Temp. | Humidity | Pressure | Rain* | Wind** | Luminosity | Snow |
|---|---|---|---|---|---|---|---|
| 1777163045 | 33.33° C | - | - | 0 mm | 0.89 m/s, 221° | - | - |
| 1777162742 | 32.78° C | - | - | 0 mm | 1.34 m/s, 218° | - | - |
| 1777162442 | 30.56° C | - | - | 0 mm | 2.24 m/s, 217° | - | - |
| 1777162143 | 32.22° C | - | - | 0 mm | 2.24 m/s, 238° | - | - |
| 1777161840 | 31.67° C | - | - | 0 mm | 2.68 m/s, 221° | - | - |
| 1777161540 | 31.67° C | - | - | 0 mm | 2.24 m/s, 207° | - | - |
| 1777161240 | 33.33° C | - | - | 0 mm | 2.68 m/s, 214° | - | - |
| 1777160938 | 33.33° C | - | - | 0 mm | 2.24 m/s, 218° | - | - |
| 1777160638 | 34.44° C | - | - | 0 mm | 2.68 m/s, 248° | - | - |
| 1777160338 | 34.44° C | - | - | 0 mm | 3.58 m/s, 250° | - | - |
| 1777160036 | 34.44° C | - | - | 0 mm | 3.13 m/s, 184° | - | - |
| 1777159736 | 35.56° C | - | - | 0 mm | 3.13 m/s, 212° | - | - |
| 1777159436 | 35.56° C | - | - | 0 mm | 3.58 m/s, 211° | - | - |
| 1777159133 | 36.11° C | - | - | 0 mm | 3.58 m/s, 195° | - | - |
| 1777158834 | 36.11° C | - | - | 0 mm | 3.13 m/s, 186° | - | - |
| 1777158534 | 35.56° C | - | - | 0 mm | 4.02 m/s, 184° | - | - |
| 1777158231 | 35.56° C | - | - | 0 mm | 4.02 m/s, 250° | - | - |
| 1777157932 | 36.67° C | - | - | 0 mm | 2.68 m/s, 169° | - | - |
| 1777157632 | 35.56° C | - | - | 0 mm | 3.13 m/s, 177° | - | - |
| 1777157329 | 35.56° C | - | - | 0 mm | 3.58 m/s, 210° | - | - |
| 1777157029 | 36.67° C | - | - | 0 mm | 4.02 m/s, 221° | - | - |
| 1777156729 | 36.67° C | - | - | 0 mm | 2.24 m/s, 228° | - | - |
| 1777156427 | 36.67° C | - | - | 0 mm | 2.24 m/s, 259° | - | - |
| 1777156127 | 36.11° C | - | - | 0 mm | 1.34 m/s, 291° | - | - |
| 1777155827 | 36.11° C | - | - | 0 mm | 1.79 m/s, 259° | - | - |
* Rain latest hour (hover to see other rain measurements)
** Current wind speed in m/s (hover to see current wind gust speed)